Погода Уст-Хайрюзово

Погода Уст-Хайрюзово : погода сейчас, прогноз погоды и архив. Всё, что Вы хотите узнать о погоде Уст-Хайрюзово!

Поиск расширенной информации на нашем сайте:

Другие новости

Новости СМИ2

Главная страница сайта

Новости сайта

03.07.2017

Напоминаем, что на нашем специализированном сайте Метеоцентр.Азия вы можете получить высокодетализированные автоматические прогнозы погоды по пунктам России, СНГ и мира в авиационном формате (включающие направление и скорость ветра, видимость, явления погоды, количество и форму облачности, нижнюю и верхнюю границу облачности).


Погода Уст-Хайрюзово - сегодня

Время (UTC), дата Ветер
(°,м/с) 
Видим.   Явления Облачность Т
(°С)
Тd
(°С)
f(%) Тe
(°С)
Pmin
(гПа)
dP
(гПа)
Po
(мм)
O2
(г/м3)
Тmin Tmax R s Состояние
почвы
18 17.10.18 110 (В) 20000 м    8/0 средняя 
[Ac As]
+4.7 -1.9 62 +3  1003.4  -2.9  752  298           
21 17.10.18 130 (ЮВ) 10 км  слаб. ливневой дождь  10/8 1110 м кучево-дожд., средняя 
[Cb cap|Ac und]
+5.2 -0.1 69 +4  1003  -0.4  752  297  -1.4    0.0     
03 18.10.18 110 (В) 20000 м    9/4 1000 м средняя 
[Sc|Ac trans]
+9.4 +1.1 56 +9  999.5  -1.9  749  292           
06 18.10.18 тихо ()   20000 м    10/3 1000 м средняя 
[Sc|Ac und]
+8.1 +1.4 63 +8  998.7  -0.9  748  293           
12 18.10.18 130 (ЮВ) 20000 м    3/0 средняя 
[Ac trans]
+1.3 -0.2 90 +2  997.9  -0.5  748  300           
15 18.10.18 140 (ЮВ) 20000 м    3/0 средняя 
[Ac trans]
+1 -0.4 90 +2  997  -0.8  747  300           
18 18.10.18 110 (В) 20000 м    3/0 средняя 
[Ac trans]
-0.3 -1.4 92 997.1  0.1  747  301           
00 19.10.18 180 (Ю) 20000 м    10/0 средняя 
[Ac As]
+2.9 +1 87 +4  998.5  0.7  748  298           
03 19.10.18 300 (СЗ) 20000 м    8/0 средняя 
[Ac trans]
+5.9 +2.7 80 +6  998.9  0.4  748  295           
06 19.10.18 260 (З) 20000 м    10/0 средняя 
[Ac As]
+5.6 +2.1 78 +6  1000.1  1.2  749  296           
12 19.10.18 140 (ЮВ) 20000 м    8/0 средняя 
[Ac As]
+2.6 +1.5 92 +2  1002.7  1.1  751  300           
15 19.10.18 140 (ЮВ) 20000 м    9/0 средняя 
[Ac As]
+1.8 +0.8 93 +1  1003.7  752  301           
18 19.10.18 140 (ЮВ) 20000 м    9/0 средняя 
[Ac As]
+2.1 +1.3 94 +1  1004.4  0.7  753  301           
06 20.10.18 280 (З) 20000 м  {ливн. осадки}  9/4 600 м средняя 
[Sc diur, vesp|Ac As]
+4.7 +1.1 77 +4  1008.1  1.4  755  299           
12 20.10.18 150 (ЮВ) 20000 м    10/0 средняя 
[Ac und]
+2.2 +0.3 87 +2  1011.3  1.4  758  303           
15 20.10.18 150 (ЮВ) 20000 м    6/0 средняя 
[Ac As]
+1.3 +0.3 93 1012.3  758  304           
18 20.10.18 140 (ЮВ) 20000 м    3/0 средняя 
[Ac trans]
+0.8 -0 94 1013.2  0.9  759  305           
03 21.10.18 120 (ЮВ) 20000 м    9/3 1000 м средняя 
[Cu hum|Ac trans]
+6.7 +0.1 63 +7  1013.9  -0.8  760  299           
06 21.10.18 тихо ()   20000 м    10/0 средняя 
[Ac und]
+5.2 +0.7 73 +5  1014  -0.1  760  300           
09 21.10.18 190 (Ю) 20000 м  {ливн. осадки}  9/6 1320 м средняя 
[Sc diur, vesp|Ac trans]
+2.6 +0.1 84 +3  1014.1  0.1  760  303    +6.9  0.5     
12 21.10.18 010 (С) 20000 м  {ливн. осадки}  8/3 1000 м средняя 
[Sc|Ac trans]
+0.2 -1.1 91 +1  1013.8  -0.3  760  306           
15 21.10.18 160 (Ю) 20000 м    4/0 средняя 
[Ac trans]
-0.7 -1.5 94 1013.3  -0.5  759  307           
18 21.10.18 140 (ЮВ) 2000 м  дымка  ясно 
-1.4 -2 96 -1  1013  -0.3  759  308           
00 22.10.18 010 (С) 20000 м    10/0 средняя 
[Ac As]
+2.3 +1.6 95 +3  1013.4  0.2  759  303           
03 22.10.18 340 (С) 20000 м    10/6 600 м средняя 
[Sc|Ac As]
+5.1 +2.7 84 +4  1013.1  -0.3  759  300           
Время (UTC), дата Ветер
(°,м/с) 
Видим.   Явления Облачность Т
(°С)
Тd
(°С)
f(%) Тe
(°С)
Pmin
(гПа)
dP
(гПа)
Po
(мм)
O2
(г/м3)
Тmin Tmax R s Состояние
почвы

Для получения пояснительной информации подведите курсор к названию столбца.

ПОГОДА Уст-Хайрюзово - архив

Всё, что Вы хотите узнать о погоде Уст-Хайрюзово - удобно и подробно!

Выберите нужную дату (начиная с 1 января 2015* года) и нажмите кнопку "Найти".
Будут отображены архивные сводки погоды по пункту Уст-Хайрюзово, начиная с указанной даты.


Отображать данные в формате CSV (для использования в таблицах Excel)


Внимание! Наш архив погоды предназначен исключительно для личного некоммерческого использования в познавательных целях. Если Вам необходимы официальные справки о состоянии погоды (для производственных, юридических, коммерческих и т.п. целей), обращайтесь в органы Росгидромета.

*Примечание: данная дата относится к архиву по метеостанциям СССР (Россия, СНГ, Балтия).
Архив по метеостанциям Зарубежной Европы и Азии (кроме Китая) хранится 10 дней, по другим регионам земного шара (Китай, Африка, Америка, Австралия, Океания) - 1 день.

Уст-Хайрюзово - район местоположения метеостанции


Название, широта, долгота, высота метеостанции:
Уст-Хайрюзово 57.1°ш. 156.8°д. 3 м над ур. моря [Российская Федерация]

Дополнительная информация

В oтличие oт бoльшинства пoгoдных сайтoв мы публикуем пoдрoбную метеoинфoрмацию в детальнoм прoфессиoнальнoм фoрмате.

Характеристики температуры и влажнoсти вoздуха измеряются на высoте 2 м в тени вдали oт зданий и деревьев.
Скoрoсть ветра измеряется на высoте 10 м (на урoвне рoста челoвека скoрoсть ветра ниже в 1.5-2 раза). Если метеoстанция нахoдится в гoрoде или в лесу, тo скoрoсть ветра занижена на 2-4 м/с пo сравнению с oткрытым местoм. Скoрoсть ветра над акватoриями крупных рек и oзёр, а также на вершинах хoлмoв на 2-5 м/с выше, чем в oбычных услoвиях.
Атмoсфернoе давление в разных тoчках местнoсти мoжет значительнo oтличаться oт давления на метеoстанции, в зависимoсти oт услoвий рельефа (при пoдъёме на 10 м давление пoнижается примернo на 1 мм рт.ст.).